Flag for Belarus Weather past 2 weeks in Barysaw, Belarus

Now
36 °F

Overcast.


Feels Like: 33 °F
Forecast: 31 / 41 °F
Wind: 3 mph from Southwest

Location: Minsk

Current Time: Mar 3, 2015 at 8:06:50 AM

Latest Report: Mar 3, 2015 at 7:30 AM


Visibility: N/A

Pressure: 29.65 "Hg

Humidity: 100%

Dew point: 36 °F

Location of BarysawLocation

Historic Weather in Barysaw — Graph

°F

Barysaw temperature yesterday

Maximum temperature yesterday: 39 °F (at 2:30 AM)
Minimum temperature yesterday: 36 °F (at 3:00 PM)
Average temperature yesterday: 38 °F

Past Weeks' High & Low Weather Summary

 TemperatureHumidityPressure
High43 °F (Feb 22, 3:30 PM)100% (Feb 19, 4:30 AM)30.86 "Hg (Feb 19, 4:30 AM)
Low1 °F (Feb 17, 6:30 AM)26% (Feb 16, 4:00 PM)29.56 "Hg (Mar 3, 2:30 AM)
Average33 °F88%30.06 "Hg
* Reported Feb 16 7:00 AM — Mar 3 7:00 AM, Barysaw, Weather by CustomWeather, © 2015

Note: Actual official high and low records may vary slightly from our data, if they occured in-between our weather recording intervals... More about our weather records

Advertising

Barysaw weather history for previous 24 hours

 ConditionsComfort  
Time TempWeatherWind HumidityBarometerVisibility
7:00 AM
Tue, Mar 3
36 °FMostly cloudy.6 mph100%29.65 "HgN/A
6:30 AM36 °FLight rain. Overcast.6 mph100%29.65 "HgN/A
6:00 AM36 °FLight rain. Overcast.3 mph100%29.62 "HgN/A
5:30 AM37 °FLight rain. Overcast.3 mph93%29.62 "Hg4 mi
5:00 AM37 °FLight rain. Overcast.3 mph93%29.62 "HgN/A
4:30 AM37 °FLight rain. Overcast.3 mph93%29.59 "HgN/A
4:00 AM39 °FLight rain. Overcast.6 mph93%29.59 "Hg5 mi
3:30 AM39 °FLight rain. Mostly cloudy.3 mph100%29.59 "Hg4 mi
3:00 AM39 °FSprinkles. Fog.8 mph100%29.59 "Hg2 mi
2:30 AM39 °FSprinkles. Fog.13 mph100%29.56 "Hg2 mi
2:00 AM39 °FLight rain. Fog.13 mph100%29.59 "Hg3 mi
1:30 AM39 °FLight rain. Fog.13 mph100%29.59 "Hg3 mi
1:00 AM39 °FLight rain. Fog.15 mph100%29.59 "Hg2 mi
12:30 AM39 °FLight rain. Fog.15 mph100%29.59 "Hg2 mi
12:00 AM39 °FFog.15 mph100%29.59 "Hg2 mi
11:30 PM
Mon, Mar 2
39 °FFog.15 mph93%29.59 "Hg2 mi
11:00 PM39 °FFog.10 mph93%29.62 "Hg3 mi
10:30 PM37 °FLow clouds.10 mph100%29.62 "Hg4 mi
10:00 PM39 °FLow clouds.10 mph93%29.62 "Hg5 mi
9:30 PM37 °FLow clouds.10 mph100%29.62 "Hg4 mi
9:00 PM37 °FLow clouds.10 mph100%29.62 "Hg4 mi
8:30 PM37 °FLow clouds.10 mph100%29.62 "Hg5 mi
8:00 PM37 °FDrizzle. Low clouds.10 mph100%29.62 "Hg5 mi
7:30 PM37 °FDrizzle. Fog.13 mph100%29.65 "Hg3 mi
7:00 PM37 °FLow clouds.10 mph100%29.62 "Hg4 mi
6:30 PM37 °FLow clouds.10 mph100%29.62 "Hg6 mi
6:00 PM37 °FLow clouds.10 mph100%29.62 "Hg4 mi
5:30 PM37 °FLow clouds.10 mph93%29.62 "Hg4 mi
5:00 PM37 °FLow clouds.10 mph93%29.62 "Hg4 mi
4:30 PM37 °FLow clouds.13 mph93%29.65 "Hg4 mi
4:00 PM37 °FLow clouds.10 mph100%29.65 "Hg5 mi
3:30 PM37 °FLight rain. Low clouds.10 mph93%29.65 "Hg5 mi
3:00 PM36 °FLight rain. Low clouds.10 mph100%29.65 "Hg4 mi
2:30 PM37 °FLight rain. Low clouds.10 mph93%29.65 "HgN/A
2:00 PM37 °FLight rain. Low clouds.10 mph100%29.65 "Hg5 mi
1:30 PM37 °FLow clouds.13 mph100%29.65 "Hg4 mi
1:00 PM37 °FFog.13 mph100%29.65 "Hg2 mi
12:30 PM37 °FFog.10 mph100%29.65 "Hg2 mi
12:00 PM37 °FFog.10 mph100%29.65 "Hg2 mi
11:30 AM37 °FFog.10 mph100%29.68 "Hg2 mi
11:00 AM37 °FFog.10 mph100%29.68 "Hg2 mi
10:30 AM37 °FFog.10 mph100%29.68 "Hg3 mi
10:00 AM37 °FFog.10 mph100%29.68 "Hg3 mi
9:30 AM37 °FFog.10 mph100%29.68 "Hg3 mi
9:00 AM37 °FFog.10 mph100%29.68 "Hg2 mi
8:30 AM37 °FFog.13 mph100%29.68 "Hg2 mi
8:00 AM37 °FFog.10 mph100%29.68 "Hg2 mi
Weather by CustomWeather, © 2015

See weather overviewHow to use our weather pages